Location: Enna
(37.5670°N, 14.2670°E)
Time: 04:28:37
(UTC+01:00)

ISS - Visible Passes

Search period start: 23 January 2019 00:00
Search period end: 02 February 2019 00:00
Orbit: 404 x 411 km, 51.6° (Epoch: 23 January)

Date Brightness Start Highest point End Pass type
(mag) Time Alt. Az. Time Alt. Az. Time Alt. Az.
23 Jan -3.3 18:36:35 10° WSW 18:39:49 55° NW 18:41:04 32° NNE visible
24 Jan -3.8 17:45:11 10° SW 17:48:28 74° SE 17:51:46 10° NE visible
24 Jan -1.2 19:23:08 10° WNW 19:24:46 16° NW 19:24:46 16° NW visible
25 Jan -2.0 18:31:00 10° W 18:33:46 24° NNW 18:35:40 15° NNE visible
26 Jan -0.9 19:18:49 10° NNW 19:19:13 10° NNW 19:19:13 10° NNW visible
27 Jan -1.3 18:25:59 10° WNW 18:27:50 14° NNW 18:29:42 10° NNE visible
